Date,TemperatureHighF,TemperatureAvgF,TemperatureLowF,DewpointHighF,DewpointAvgF,DewpointLowF,HumidityHigh,HumidityAvg,HumidityLow,PressureMaxIn,PressureMinIn,WindSpeedMaxMPH,WindSpeedAvgMPH,GustSpeedMaxMPH,PrecipitationSumIn
2013-1-1,65.9,54.1,46.5,58.9,51.1,44.5,97,90,74,30.19,29.94,7,0,7,0.00
2013-1-2,62.7,58.2,53.5,60.0,55.2,50.1,98,90,84,30.12,29.89,9,1,9,0.00
2013-1-3,53.5,50.9,47.1,51.2,49.3,46.0,97,94,89,30.25,30.06,6,0,6,0.15
2013-1-4,55.2,45.3,37.6,46.0,39.2,34.5,97,81,48,30.33,30.23,7,0,7,0.00
2013-1-5,54.9,44.4,35.2,42.7,36.8,30.9,95,76,44,30.40,30.27,8,0,8,0.00
2013-1-6,55.4,49.8,46.0,49.3,46.5,42.5,95,89,71,30.28,30.10,8,0,8,0.06
2013-1-7,56.9,49.1,43.5,45.9,40.3,37.1,92,72,50,30.37,30.16,10,1,10,0.00
2013-1-8,68.0,54.5,45.2,58.4,48.8,40.7,90,82,67,30.37,30.28,8,1,8,0.00
2013-1-9,71.9,62.5,55.3,63.8,57.9,52.2,94,85,74,30.38,30.29,7,0,7,0.00
2013-1-10,68.5,59.9,54.6,61.8,57.4,53.0,98,92,68,30.43,30.33,9,1,11,0.06
2013-1-11,77.6,63.0,55.8,69.0,60.2,55.2,99,91,66,30.33,30.17,7,0,7,0.00
2013-1-12,80.1,64.3,56.5,68.3,60.9,55.5,99,90,64,30.20,30.10,3,0,3,0.00
2013-1-13,76.4,62.4,54.4,68.4,59.4,53.6,99,90,68,30.18,30.07,6,0,6,0.00
2013-1-14,79.4,64.4,56.9,69.3,61.2,55.9,99,90,65,30.19,30.10,12,0,12,0.01
2013-1-15,77.7,65.0,57.6,68.6,61.9,56.8,99,91,72,30.16,30.03,7,0,7,0.00
2013-1-16,77.8,66.8,59.8,65.9,62.7,58.7,98,88,64,30.06,29.95,11,0,11,0.01
2013-1-17,75.8,61.3,46.6,65.0,57.1,40.5,98,87,66,30.03,29.74,22,2,22,0.09
2013-1-18,55.9,47.0,40.5,42.7,34.4,26.6,89,64,34,30.48,30.02,19,2,19,0.00
2013-1-19,62.2,49.8,40.2,50.0,41.2,31.9,93,73,57,30.45,30.22,8,0,8,0.00
2013-1-20,67.4,52.7,42.7,50.4,42.7,31.4,97,73,28,30.22,30.03,22,1,22,0.00
2013-1-21,66.3,51.0,38.9,46.2,40.4,36.6,95,70,34,30.09,29.96,15,0,15,0.00
2013-1-22,55.7,47.9,40.7,38.4,28.5,24.8,62,48,33,30.27,30.04,14,1,14,0.00
2013-1-23,54.6,42.7,34.2,38.2,29.2,22.2,88,60,35,30.37,30.18,9,0,11,0.00
2013-1-24,68.8,51.4,37.1,48.2,37.8,23.3,88,62,30,30.45,30.09,21,2,21,0.00
2013-1-25,53.1,42.2,31.1,46.0,32.6,19.7,80,69,60,30.44,30.14,11,1,11,0.00
2013-1-26,60.4,48.3,39.2,46.0,39.7,34.9,87,73,45,30.30,30.10,12,0,12,0.00
2013-1-27,55.1,45.2,37.6,43.3,38.5,32.6,89,78,61,30.49,30.30,14,2,14,0.00
2013-1-28,64.0,51.3,43.5,56.3,46.3,39.0,92,83,69,30.45,30.27,9,0,9,0.00
2013-1-29,78.8,60.4,47.9,67.8,56.9,46.0,99,89,63,30.27,30.10,8,0,8,0.00
2013-1-30,75.7,67.7,61.0,67.7,64.7,58.0,98,90,75,30.11,29.63,23,1,23,0.21
2013-1-31,61.0,50.9,44.9,58.0,35.7,25.1,93,59,32,30.18,29.72,20,4,30,0.09
2013-2-1,59.4,47.5,39.1,35.5,28.1,14.6,66,49,20,30.36,30.15,24,2,24,0.00
2013-2-2,59.7,44.1,32.4,44.6,33.4,19.2,91,67,47,30.36,30.09,6,0,6,0.00
2013-2-3,61.0,50.8,43.5,42.2,35.7,32.8,91,58,35,30.09,29.91,25,2,25,0.00
2013-2-4,56.4,45.5,33.4,41.8,35.8,30.0,92,71,45,30.14,30.03,4,0,5,0.00
2013-2-5,69.2,51.4,37.8,52.9,45.0,35.7,98,81,47,30.07,29.95,12,0,12,0.00
2013-2-6,72.3,56.2,46.3,56.5,50.1,44.3,97,81,47,30.17,30.01,6,0,6,0.00
2013-2-7,60.2,54.9,48.2,57.4,53.6,46.3,98,95,89,30.15,29.70,15,1,15,1.46
2013-2-8,64.8,55.6,48.7,56.9,50.7,47.2,98,85,64,30.05,29.70,15,2,15,0.05
2013-2-9,61.7,50.3,40.4,50.5,36.5,27.0,91,63,30,30.33,30.05,10,1,10,0.00
2013-2-10,65.5,52.8,39.0,57.5,47.7,36.5,96,84,65,30.38,30.17,11,1,11,0.00
2013-2-11,64.6,62.1,59.5,63.5,60.6,55.8,100,95,86,30.22,30.04,9,0,9,1.50
2013-2-12,60.5,57.2,51.4,59.2,55.0,49.4,100,93,73,30.12,29.87,13,0,13,1.73
2013-2-13,73.8,60.0,50.8,67.9,55.0,49.0,100,85,51,29.88,29.68,33,2,33,0.19
2013-2-14,54.4,50.1,45.1,49.5,43.1,39.7,92,78,61,30.08,29.83,13,0,13,0.00
2013-2-15,61.6,48.4,39.2,46.5,42.2,37.9,100,81,48,30.10,29.96,6,0,6,0.00
2013-2-16,54.4,43.5,36.7,46.3,39.7,30.7,100,87,65,30.03,29.83,24,1,24,0.04
2013-2-17,47.9,38.1,30.2,31.1,21.2,12.2,82,54,26,30.32,30.03,22,2,22,0.00
2013-2-18,53.6,40.4,28.3,34.5,28.0,22.2,88,64,37,30.42,30.25,6,0,6,0.00
2013-2-19,66.0,51.7,38.4,56.7,48.6,34.5,98,90,61,30.26,29.97,18,1,18,0.22
2013-2-20,58.2,47.3,35.9,49.5,37.8,29.0,96,72,34,30.16,30.03,9,0,9,0.01
2013-2-21,60.2,48.6,37.5,49.3,42.4,35.7,96,80,54,30.18,30.08,6,0,6,0.00
2013-2-22,64.1,55.5,49.4,63.4,52.4,45.8,98,89,76,30.18,30.02,18,1,18,0.43
2013-2-23,61.5,52.4,46.3,61.2,51.9,45.5,99,98,96,30.05,29.77,8,0,8,2.42
2013-2-24,68.1,55.7,48.9,56.0,51.5,47.6,99,87,48,29.99,29.75,13,1,13,0.02
2013-2-25,51.9,48.4,43.2,50.0,46.7,41.5,97,94,86,30.08,29.93,14,2,14,0.23
2013-2-26,72.3,62.5,48.6,68.4,59.9,47.2,100,91,72,29.94,29.57,24,1,24,0.65
2013-2-27,62.5,54.1,48.8,54.3,44.9,39.7,85,71,55,29.90,29.69,18,2,18,0.00
2013-2-28,61.8,53.3,46.7,43.8,38.3,33.0,81,59,35,29.90,29.78,17,2,21,0.00
2013-3-1,54.1,46.9,40.9,38.5,34.4,31.8,79,62,48,29.95,29.85,12,1,12,0.00
2013-3-2,52.8,44.3,37.4,37.6,34.7,32.0,85,70,47,29.93,29.84,21,2,21,0.00
2013-3-3,49.1,41.0,33.4,35.6,29.9,27.8,88,66,45,30.02,29.89,17,1,17,0.00
2013-3-4,57.9,43.2,30.2,37.9,28.3,22.5,87,59,26,30.18,30.01,13,1,13,0.00
2013-3-5,65.8,54.1,41.5,57.5,46.1,37.9,97,77,40,30.12,29.71,18,1,18,0.03
2013-3-6,58.9,48.7,41.8,55.2,32.9,25.1,88,56,38,30.07,29.70,26,5,26,0.00
2013-3-7,62.7,47.5,36.0,41.7,34.6,30.1,87,63,35,30.22,30.07,13,1,13,0.00
2013-3-8,62.0,48.4,39.0,38.0,31.3,25.7,90,55,26,30.28,30.14,16,1,16,0.00
2013-3-9,64.7,49.1,38.7,44.8,37.8,31.5,89,66,38,30.31,30.22,14,0,14,0.00
2013-3-10,67.3,52.1,39.8,49.0,42.7,38.1,97,73,45,30.27,30.20,7,0,7,0.00
2013-3-11,69.5,59.8,48.4,60.5,54.8,45.0,98,84,67,30.20,29.90,10,0,10,0.00
2013-3-12,70.0,64.4,56.8,63.9,59.2,48.8,96,84,58,29.94,29.79,12,1,12,0.10
2013-3-13,67.4,56.4,44.2,49.4,36.3,27.6,85,51,26,30.12,29.94,27,2,27,0.00
2013-3-14,57.2,47.4,39.2,35.2,26.3,21.7,78,45,26,30.31,30.09,18,1,18,0.00
2013-3-15,70.3,52.0,39.6,49.3,39.2,31.4,92,65,30,30.22,30.04,13,0,13,0.00
2013-3-16,81.0,63.7,53.8,54.2,49.7,44.3,85,63,34,30.04,29.86,19,1,19,0.00
2013-3-17,78.9,64.7,57.0,60.9,54.6,51.0,88,71,48,30.03,29.94,18,1,18,0.00
2013-3-18,63.9,61.3,57.7,62.6,58.0,54.6,96,89,75,30.07,29.85,15,0,15,0.51
2013-3-19,77.8,64.0,55.3,59.5,50.8,31.6,98,69,27,29.99,29.81,16,2,16,0.34
2013-3-20,64.5,55.6,45.2,40.2,33.2,20.3,80,44,23,30.09,29.82,14,1,14,0.00
2013-3-21,60.5,49.7,41.6,41.1,27.2,15.0,89,46,18,29.94,29.78,26,3,26,0.00
2013-3-22,55.1,46.3,38.6,41.9,30.4,19.2,75,54,44,30.09,29.93,13,1,13,0.00
2013-3-23,56.0,49.9,45.1,52.9,46.2,41.1,97,87,61,30.04,29.85,10,1,11,0.58
2013-3-24,65.5,54.4,47.8,65.2,53.4,46.2,99,96,93,29.87,29.44,15,2,15,2.80
2013-3-25,57.6,50.1,44.2,48.2,35.3,20.9,100,61,29,29.96,29.57,30,6,30,0.00
2013-3-26,52.7,44.2,35.9,32.9,28.5,25.5,72,55,38,30.17,29.96,21,3,21,0.00
2013-3-27,61.1,47.2,33.9,36.8,30.8,27.9,85,57,30,30.26,30.15,15,1,18,0.00
2013-3-28,63.7,49.8,39.1,39.1,31.6,26.8,87,54,26,30.29,30.17,18,1,18,0.00
2013-3-29,66.8,51.2,38.3,45.2,39.1,34.5,94,67,34,30.35,30.20,6,0,7,0.00
2013-3-30,77.5,60.0,48.8,54.9,49.1,44.0,95,71,32,30.24,30.07,8,0,8,0.00
2013-3-31,77.0,64.7,57.7,61.6,56.8,53.1,89,76,55,30.09,29.89,8,1,9,0.02
2013-4-1,79.3,65.9,59.4,63.3,59.0,56.0,94,80,53,29.94,29.84,16,1,16,0.04
2013-4-2,64.7,57.4,49.0,56.2,49.2,44.3,95,76,48,30.13,29.94,8,1,10,0.00
2013-4-3,70.0,56.9,49.0,57.7,49.7,44.5,97,78,57,30.23,30.05,12,1,12,0.00
2013-4-4,62.2,56.0,50.6,61.6,52.4,46.0,98,88,71,30.23,29.82,16,2,16,0.40
2013-4-5,61.4,51.8,44.9,51.9,47.7,43.8,97,87,69,30.02,29.84,12,1,12,0.12
2013-4-6,70.9,57.2,45.8,53.7,48.2,37.6,96,75,30,30.22,30.01,14,1,14,0.00
2013-4-7,75.6,62.7,51.2,62.3,56.4,49.8,97,82,50,30.24,30.13,8,0,8,0.00
2013-4-8,82.0,66.0,52.9,65.7,59.6,51.2,98,82,55,30.18,30.11,8,0,8,0.00
2013-4-9,86.3,69.4,56.8,67.4,61.9,55.4,98,80,46,30.22,30.11,7,0,7,0.00
2013-4-10,84.0,69.5,58.0,66.9,62.5,56.6,98,81,51,30.17,30.02,7,0,7,0.00
2013-4-11,80.5,70.4,61.7,73.2,67.2,60.1,98,90,76,30.02,29.83,8,0,8,0.00
2013-4-12,81.2,72.1,68.1,74.1,69.6,66.3,98,92,78,29.86,29.72,14,1,14,0.63
2013-4-13,78.6,65.4,55.9,66.6,53.7,48.4,95,68,41,30.01,29.82,11,1,11,0.00
2013-4-14,71.2,63.4,54.5,63.7,59.3,53.1,98,87,74,30.08,29.92,10,0,10,0.17
2013-4-15,72.3,66.8,63.4,67.0,64.0,62.2,98,91,74,30.14,29.87,9,0,10,0.47
2013-4-16,78.2,69.0,60.2,68.6,63.7,58.8,98,84,63,30.23,30.14,7,0,7,0.00
2013-4-17,82.0,69.8,61.3,67.7,63.7,60.1,98,83,51,30.22,30.13,8,0,8,0.00
2013-4-18,81.0,72.1,64.9,69.8,66.8,63.1,98,84,62,30.14,30.02,8,0,8,0.00
2013-4-19,82.2,73.1,68.2,74.5,69.7,66.1,97,90,76,30.02,29.84,21,1,21,0.85
2013-4-20,69.3,56.6,49.4,66.8,51.0,44.3,97,83,56,30.23,29.92,18,1,18,0.37
2013-4-21,68.9,57.1,45.4,56.0,49.6,43.7,95,77,57,30.32,30.21,19,3,19,0.00
2013-4-22,71.7,58.9,49.5,55.3,48.4,38.9,81,69,53,30.28,30.11,15,2,15,0.00
2013-4-23,57.5,56.9,56.4,49.6,49.4,49.1,77,76,75,30.16,30.16,6,2,6,0.00
2013-4-27,75.7,69.7,62.6,60.0,54.4,49.8,80,59,43,30.30,30.22,5,1,12,0.00
2013-4-28,76.8,68.9,60.3,67.3,63.4,56.2,95,83,67,30.22,30.03,3,0,10,0.00
2013-4-29,84.0,69.2,64.4,71.5,66.2,62.9,97,90,61,30.05,29.94,12,0,12,0.50
2013-4-30,75.6,67.9,63.8,68.3,64.7,60.9,98,90,72,30.08,29.94,9,0,10,0.04
2013-5-1,73.5,65.4,60.5,63.8,61.0,58.5,95,86,67,30.16,30.05,13,1,13,0.00
2013-5-2,74.6,67.7,63.2,66.2,63.5,59.3,94,87,72,30.15,30.09,20,3,20,0.00
2013-5-3,69.2,64.0,60.0,63.6,59.5,52.9,97,86,71,30.10,29.99,21,3,21,0.02
2013-5-4,66.2,62.7,59.2,62.0,59.3,54.5,96,89,77,30.00,29.88,18,3,18,0.06
2013-5-5,70.6,65.9,62.9,66.8,63.8,61.5,97,93,83,29.89,29.77,13,1,13,0.98
2013-5-6,75.4,65.0,58.0,62.8,57.7,53.2,98,80,48,29.92,29.82,12,1,12,0.00
2013-5-7,72.5,62.3,54.7,61.7,56.8,52.1,96,83,64,29.97,29.89,8,0,8,0.09
2013-5-8,80.8,66.0,52.0,65.5,58.1,50.3,97,78,51,30.05,29.95,14,1,14,0.00
2013-5-9,87.1,72.1,62.2,69.6,63.2,60.8,96,76,44,30.09,30.01,13,0,13,0.00
2013-5-10,88.8,74.0,62.5,72.1,64.8,59.9,95,75,48,30.09,30.00,7,0,7,0.00
2013-5-11,85.9,75.1,69.5,70.4,67.7,63.1,96,79,52,30.02,29.87,9,0,9,0.00
2013-5-12,84.5,75.4,67.9,69.5,62.6,52.1,89,67,38,29.99,29.84,16,2,16,0.00
2013-5-13,77.3,65.9,57.0,52.6,45.6,40.5,72,50,29,30.14,29.98,14,1,14,0.00
2013-5-14,77.7,63.6,49.4,56.6,51.3,45.8,90,67,40,30.25,30.12,8,0,8,0.00
2013-5-15,88.0,71.1,58.3,67.6,59.5,54.5,95,69,43,30.17,30.01,12,0,12,0.00
2013-5-16,84.7,75.0,66.1,70.2,64.5,59.0,88,71,52,30.07,29.99,14,1,14,0.00
2013-5-17,90.3,75.1,65.3,73.9,66.8,63.4,97,77,53,30.11,30.03,11,0,11,0.00
2013-5-18,86.6,74.8,66.9,72.6,68.6,64.6,97,82,57,30.15,30.06,8,0,8,0.00
2013-5-19,83.7,75.6,69.7,72.7,70.3,66.4,93,84,67,30.12,30.05,5,0,5,0.00
2013-5-20,83.3,75.8,71.2,74.3,71.5,68.9,97,87,69,30.10,30.02,9,0,9,0.03
2013-5-21,81.2,73.0,67.6,74.9,70.6,66.2,98,92,75,30.09,29.98,7,0,7,0.93
2013-5-22,87.7,75.4,66.2,73.6,69.9,65.0,98,84,60,30.01,29.92,6,0,6,0.00
2013-5-23,88.4,76.8,68.8,74.9,70.9,67.6,98,83,54,29.96,29.84,12,0,12,0.00
2013-5-24,85.6,75.5,66.7,71.0,59.2,42.6,92,60,30,30.15,29.85,15,1,15,0.00
2013-5-25,82.3,67.6,57.6,58.2,48.7,38.2,78,52,24,30.29,30.14,12,1,12,0.00
2013-5-26,86.6,70.9,57.7,67.5,59.9,55.1,95,70,44,30.25,30.14,11,0,11,0.00
2013-5-27,87.0,73.2,62.0,68.9,64.3,60.2,97,76,49,30.24,30.16,5,0,5,0.00
2013-5-28,85.8,74.4,65.3,70.1,66.3,63.5,97,77,54,30.24,30.17,6,0,6,0.00
2013-5-29,80.3,70.7,65.7,68.9,66.3,64.2,97,87,64,30.25,30.15,5,0,5,0.00
2013-5-30,86.9,76.2,68.1,73.6,70.3,65.3,98,83,60,30.25,30.16,6,0,6,0.00
2013-5-31,86.9,77.6,69.7,75.3,71.7,68.4,98,83,63,30.22,30.13,3,0,5,0.00
2013-6-1,89.5,77.2,68.8,74.8,70.7,67.3,97,82,57,30.15,30.06,7,0,7,0.00
2013-6-2,88.3,78.1,71.2,77.0,73.0,69.0,97,85,67,30.10,29.93,7,0,7,0.00
2013-6-3,82.4,76.2,72.7,77.2,74.2,70.5,97,93,77,29.96,29.85,9,0,9,1.35
2013-6-4,84.2,75.5,71.7,78.8,73.8,70.8,98,94,79,30.00,29.90,8,0,8,0.36
2013-6-5,81.2,76.0,72.1,76.4,73.8,71.5,99,93,80,30.03,29.93,4,0,10,0.30
2013-6-6,78.4,74.7,71.3,76.1,73.3,70.2,99,95,88,29.97,29.68,9,0,9,1.14
2013-6-7,87.4,78.0,74.1,76.6,73.9,71.9,98,88,64,29.86,29.49,22,1,24,0.11
2013-6-8,90.3,80.9,74.4,79.4,75.0,71.9,94,83,63,30.09,29.85,16,0,16,0.00
2013-6-9,89.0,80.2,75.5,78.7,75.6,73.7,97,86,70,30.13,30.06,5,0,5,0.00
2013-6-10,88.9,79.6,71.3,79.3,75.3,69.1,96,87,70,30.10,29.97,24,0,24,0.09
2013-6-11,91.3,78.7,71.9,78.6,74.5,70.7,98,88,60,30.04,29.92,14,1,14,0.19
2013-6-12,98.1,84.2,73.8,80.7,76.3,72.9,98,80,48,30.00,29.90,12,0,12,0.01
2013-6-13,97.4,86.4,78.4,81.3,78.3,74.7,96,79,51,29.92,29.72,18,1,18,0.00
2013-6-14,89.8,81.1,72.3,77.9,67.6,58.6,87,66,40,29.99,29.72,11,0,11,0.00
2013-6-15,85.3,76.1,68.5,69.7,65.2,58.9,94,71,44,30.12,29.98,8,0,8,0.00
2013-6-16,89.9,76.6,66.2,71.1,66.8,61.5,96,74,51,30.16,30.06,4,0,4,0.00
2013-6-17,89.5,78.5,71.0,77.8,73.3,68.2,96,85,66,30.08,29.97,7,0,7,0.27
2013-6-18,90.6,79.8,71.4,80.3,75.1,70.3,98,86,64,30.00,29.86,22,1,22,1.47
2013-6-19,90.3,78.7,73.2,78.5,74.5,71.7,98,88,61,30.03,29.88,12,1,12,1.37
2013-6-20,80.5,75.4,71.9,73.1,71.6,68.3,98,88,74,30.14,30.00,13,1,13,0.01
2013-6-21,84.2,77.0,70.7,75.8,71.2,67.1,92,83,67,30.16,30.09,13,1,13,0.00
2013-6-22,83.0,77.2,71.7,76.7,73.0,70.1,96,87,73,30.15,30.08,6,0,6,0.03
2013-6-23,88.8,79.5,73.2,78.3,75.1,71.7,98,87,68,30.18,30.10,7,0,7,0.00
2013-6-24,88.8,80.3,74.8,78.9,75.8,73.3,97,87,69,30.21,30.12,6,0,8,0.01
2013-6-25,89.9,80.8,74.8,80.6,75.9,73.1,97,86,66,30.16,30.05,7,0,7,0.05
2013-6-26,92.0,77.2,70.4,79.1,73.5,68.0,98,89,60,30.08,29.96,15,0,15,1.76
2013-6-27,90.7,80.4,75.4,81.4,77.2,74.2,99,90,68,29.99,29.80,12,0,12,0.12
2013-6-28,92.2,83.8,77.4,82.6,77.3,72.7,92,81,72,29.83,29.66,15,1,15,0.00
2013-6-29,89.8,79.9,73.2,79.4,74.7,70.6,95,85,67,29.77,29.68,15,0,15,0.11
2013-6-30,82.1,76.9,73.2,79.7,74.9,70.9,98,94,84,29.85,29.72,10,0,17,1.02
2013-7-1,86.7,78.6,74.7,80.1,75.7,72.3,97,91,77,30.00,29.81,13,0,13,0.02
2013-7-2,82.3,78.2,75.7,77.6,75.2,73.9,96,91,80,30.14,29.99,7,0,7,0.13
2013-7-3,84.3,78.7,75.3,78.8,76.1,74.1,98,92,80,30.20,30.11,5,0,5,0.21
2013-7-4,87.0,80.4,74.9,79.0,76.5,73.4,98,88,74,30.21,30.16,7,0,7,0.00
2013-7-5,87.5,80.6,76.3,79.7,76.6,73.9,95,88,74,30.22,30.15,2,0,2,0.13
2013-7-6,87.4,80.0,74.1,78.5,75.2,72.6,98,86,69,30.21,30.12,6,0,6,0.01
2013-7-7,92.5,80.9,73.7,78.9,74.7,72.2,97,82,61,30.18,30.09,6,0,6,0.00
2013-7-8,90.3,80.0,72.1,78.2,74.2,70.4,97,83,62,30.18,30.11,5,0,5,0.00
2013-7-9,91.8,80.6,73.1,78.4,74.9,71.4,97,84,62,30.19,30.09,6,0,6,0.00
2013-7-10,91.8,81.5,73.6,78.4,74.8,71.5,97,81,59,30.13,29.97,5,0,5,0.00
2013-7-11,92.0,81.7,75.3,80.3,75.7,72.5,94,83,67,30.01,29.88,12,0,12,0.00
2013-7-12,80.7,76.4,74.2,76.8,74.2,71.7,96,93,85,29.95,29.86,9,0,9,1.08
2013-7-13,85.7,78.1,73.9,79.4,75.4,73.2,98,92,75,30.06,29.92,5,0,7,0.05
2013-7-14,85.2,79.7,75.1,78.3,75.7,73.1,97,88,76,30.20,30.05,13,0,13,0.08
2013-7-15,89.3,82.5,76.7,79.4,77.0,73.2,96,84,70,30.23,30.16,12,1,13,0.00
2013-7-16,90.3,82.3,75.9,78.3,76.1,74.2,96,82,64,30.26,30.19,8,0,8,0.00
2013-7-17,94.5,80.5,74.2,82.0,75.0,72.1,97,84,60,30.21,30.09,12,0,12,0.05
2013-7-18,92.9,80.2,71.4,79.5,74.5,70.0,98,84,56,30.15,30.06,4,0,4,0.00
2013-7-19,91.4,80.5,74.5,78.7,75.3,72.1,97,85,63,30.12,30.01,7,0,7,0.08
2013-7-20,90.0,80.4,77.3,79.7,75.2,72.4,92,85,68,30.08,29.99,11,0,11,0.10
2013-7-21,87.3,79.2,74.3,78.5,74.9,71.8,94,87,74,30.05,29.94,12,1,12,0.00
2013-7-22,91.3,81.3,75.7,78.2,74.9,72.8,95,82,58,30.01,29.91,15,1,16,0.00
2013-7-23,91.9,82.3,76.5,76.6,74.6,72.8,91,79,57,29.94,29.79,14,1,14,0.00
2013-7-24,86.7,80.7,74.8,77.9,75.0,71.3,92,83,73,29.83,29.75,9,0,9,0.00
2013-7-25,93.2,79.9,73.8,80.6,74.4,71.0,95,84,61,29.97,29.76,7,0,7,0.00
2013-7-26,86.8,80.0,74.3,79.5,75.6,72.2,96,87,74,30.05,29.95,8,0,8,0.00
2013-7-27,91.0,81.3,75.1,79.1,76.4,73.4,97,86,66,30.03,29.90,4,0,4,0.00
2013-7-28,90.8,81.4,76.7,79.5,76.5,74.5,95,85,66,30.01,29.91,8,0,8,0.00
2013-7-29,90.4,79.1,75.5,80.5,76.0,73.0,97,91,65,30.15,30.00,8,0,8,0.16
2013-7-30,88.8,79.8,73.8,79.8,76.5,72.8,98,90,73,30.16,30.09,7,0,7,0.01
2013-7-31,86.1,78.5,74.8,79.2,76.0,73.6,98,92,76,30.12,30.01,5,0,6,0.35
2013-8-1,85.2,77.5,73.5,77.9,74.7,72.6,98,91,76,30.01,29.92,8,0,9,0.01
2013-8-2,93.3,81.1,74.5,81.2,76.3,73.3,97,86,64,30.03,29.92,8,0,8,0.00
2013-8-3,89.2,81.6,75.1,82.1,77.5,73.8,97,88,69,30.03,29.93,2,0,5,0.22
2013-8-4,94.8,84.0,76.2,80.5,77.1,75.0,97,81,57,29.99,29.87,11,1,11,0.01
2013-8-5,87.5,81.1,75.7,75.4,71.9,66.5,89,74,54,30.04,29.94,11,0,11,0.00
2013-8-6,88.4,79.3,72.3,75.4,72.0,69.0,94,79,63,30.04,29.94,6,0,6,0.00
2013-8-7,91.7,80.7,73.2,75.7,72.6,70.2,94,78,51,30.06,29.99,7,0,7,0.00
2013-8-8,93.5,80.9,74.3,80.8,76.0,71.8,97,86,65,30.06,29.99,11,0,11,0.04
2013-8-9,95.5,83.9,76.8,80.7,77.1,75.1,96,81,55,30.10,30.00,2,0,5,0.00
2013-8-10,95.8,83.9,75.9,81.5,77.2,74.2,97,81,59,30.12,30.06,8,0,8,0.00
2013-8-11,98.8,85.6,78.3,82.5,77.9,73.9,96,80,48,30.14,30.04,13,0,13,0.00
2013-8-12,100.3,86.6,78.0,82.3,78.0,74.8,91,77,48,30.09,29.95,11,0,11,0.00
2013-8-13,97.3,86.1,78.2,83.1,78.6,75.2,94,79,54,29.98,29.84,13,1,13,0.01
2013-8-14,89.2,80.0,74.9,81.2,76.0,73.7,98,88,68,30.00,29.84,10,0,10,1.53
2013-8-15,75.1,69.2,65.5,73.9,68.6,64.7,99,98,97,30.07,29.94,8,0,8,1.62
2013-8-16,79.7,72.6,67.5,76.8,71.2,66.9,99,96,88,30.07,29.99,10,1,10,0.05
2013-8-17,83.5,74.8,72.1,75.9,72.7,71.4,98,94,75,30.15,30.00,9,0,9,0.03
2013-8-18,91.0,79.1,72.4,79.3,74.8,71.4,98,88,63,30.17,30.09,8,0,8,0.21
2013-8-19,93.2,80.3,75.3,80.8,76.5,73.8,98,89,63,30.13,30.02,8,0,8,0.36
2013-8-20,92.5,80.7,75.1,80.6,76.5,73.6,98,88,67,30.15,30.04,5,0,5,0.00
2013-8-21,94.5,81.9,75.4,80.4,76.9,74.3,98,86,61,30.20,30.10,6,0,6,0.00
2013-8-22,93.4,81.0,75.7,79.7,75.9,74.1,97,86,59,30.14,30.01,5,0,5,0.12
2013-8-23,94.8,81.9,73.9,78.4,75.1,72.3,96,81,53,30.04,29.95,12,0,12,0.00
2013-8-24,85.0,77.9,73.1,75.8,73.3,70.6,97,86,69,30.19,30.00,11,0,11,0.99
2013-8-25,87.1,76.1,68.8,71.7,68.3,64.5,93,78,51,30.27,30.18,11,1,11,0.00
2013-8-26,84.8,76.1,69.6,73.1,69.0,64.6,89,79,64,30.25,30.11,8,0,8,0.00
2013-8-27,87.7,76.1,68.3,72.5,68.6,66.0,97,79,54,30.14,30.00,6,0,6,0.00
2013-8-28,93.5,79.7,71.8,76.7,71.9,67.4,94,79,51,30.03,29.94,11,0,11,0.00
2013-8-29,96.2,81.8,74.7,81.4,74.9,72.1,95,81,54,29.97,29.84,9,0,9,0.59
2013-8-30,87.9,80.1,76.4,79.4,76.3,74.7,97,89,72,29.99,29.89,11,0,11,0.00
2013-8-31,95.6,81.3,74.2,80.2,75.8,73.0,98,85,53,29.97,29.88,5,0,7,0.00
2013-9-1,93.0,81.8,76.1,81.8,77.0,74.7,97,86,66,29.95,29.84,8,0,8,0.01
2013-9-2,91.5,80.9,72.1,80.9,76.6,70.2,97,87,63,29.94,29.83,12,0,12,1.89
2013-9-3,94.4,80.0,72.8,81.7,75.2,71.8,98,87,58,29.95,29.83,18,1,18,0.09
2013-9-4,95.7,81.1,72.3,81.9,75.6,70.9,97,85,61,30.07,29.93,7,0,7,0.00
2013-9-5,93.6,82.5,75.2,80.7,76.3,73.2,96,83,57,30.08,29.99,8,0,8,0.00
2013-9-6,93.4,80.2,72.9,74.1,70.9,66.8,94,76,43,30.08,29.99,6,0,6,0.00
2013-9-7,90.8,78.0,72.1,75.9,71.2,65.9,96,81,46,30.06,29.97,10,0,10,0.00
2013-9-8,92.8,78.1,69.0,76.6,71.4,67.5,97,81,58,29.99,29.89,7,0,7,0.00
2013-9-9,89.5,79.4,72.0,76.7,72.8,69.9,96,81,61,30.11,29.96,12,0,12,0.00
2013-9-10,89.8,79.8,72.7,77.4,73.2,70.9,95,81,56,30.20,30.10,11,1,11,0.00
2013-9-11,88.2,79.1,73.4,76.7,72.9,68.5,96,82,54,30.17,30.07,10,0,10,0.00
2013-9-12,93.4,79.4,71.5,76.9,72.4,70.0,97,81,53,30.08,29.88,7,0,7,0.00
2013-9-13,93.5,79.6,74.6,77.5,74.0,71.3,94,84,56,29.88,29.73,13,0,13,0.02
2013-9-14,86.3,75.5,68.9,76.6,70.5,63.4,95,85,70,30.04,29.77,12,1,12,1.21
2013-9-15,89.6,78.0,69.8,77.9,73.2,68.3,96,86,65,30.13,30.03,14,1,14,0.00
2013-9-16,93.7,80.4,73.8,79.6,75.1,72.3,97,85,56,30.11,30.00,10,0,10,0.48
2013-9-17,80.7,74.1,68.5,72.8,68.6,64.2,97,84,65,30.19,30.05,13,1,13,0.00
2013-9-18,78.7,70.4,63.1,64.7,60.7,53.3,90,73,44,30.20,30.11,13,1,13,0.00
2013-9-19,86.0,72.9,64.9,71.8,65.8,60.7,89,79,59,30.14,30.06,10,0,10,0.00
2013-9-20,86.6,74.1,66.9,72.5,67.8,65.3,97,82,58,30.08,29.94,3,0,4,0.00
2013-9-21,89.0,76.7,68.1,75.1,71.1,66.6,98,84,61,29.95,29.72,10,0,10,0.00
2013-9-22,79.8,74.3,68.9,74.3,70.1,66.4,96,87,72,29.85,29.68,18,0,18,0.18
2013-9-23,83.7,72.1,65.3,67.5,64.0,59.8,94,77,55,30.02,29.84,7,0,7,0.00
2013-9-24,81.5,72.0,66.6,68.1,64.7,61.6,89,78,61,30.02,29.89,8,1,10,0.00
2013-9-25,78.2,72.7,68.7,70.3,67.3,64.1,91,83,72,29.89,29.77,11,1,11,0.00
2013-9-26,74.0,68.9,64.3,69.0,66.1,61.9,98,91,80,29.94,29.78,8,0,8,0.63
2013-9-27,80.2,69.5,62.5,68.2,63.0,59.3,92,80,64,30.09,29.92,11,0,11,0.00
2013-9-28,75.9,67.9,60.7,65.5,61.2,57.1,90,79,68,30.13,30.06,11,0,11,0.00
2013-9-29,80.2,68.0,60.8,63.5,60.2,57.8,95,77,52,30.08,29.99,11,0,11,0.00
2013-9-30,78.9,65.8,56.5,63.7,59.3,55.1,96,81,54,30.06,29.97,8,0,8,0.00
2013-10-1,83.7,67.7,59.4,63.7,60.8,57.5,96,80,48,30.12,30.02,6,0,7,0.00
2013-10-2,86.5,70.2,60.2,68.7,63.1,58.4,96,80,51,30.13,30.05,6,0,6,0.00
2013-10-3,86.1,72.3,63.0,73.1,67.3,61.2,97,85,63,30.13,30.05,8,0,8,0.00
2013-10-4,86.5,74.0,66.8,74.0,69.5,65.4,98,87,60,30.12,30.05,6,0,6,0.00
2013-10-5,87.9,74.6,67.6,73.9,69.6,65.9,98,86,54,30.10,30.02,7,0,7,0.00
2013-10-6,89.5,76.4,68.9,77.3,72.5,67.7,98,88,64,30.04,29.91,5,0,5,0.07
2013-10-7,82.3,76.1,73.5,78.9,74.4,72.1,98,94,84,29.91,29.79,5,0,5,1.04
2013-10-8,75.4,67.3,60.1,74.2,65.0,57.9,97,92,87,30.04,29.82,16,1,16,0.00
2013-10-9,78.3,65.7,58.4,66.4,60.3,55.8,95,83,65,30.08,30.00,12,1,12,0.00
2013-10-10,80.0,66.4,57.0,63.8,59.5,55.0,94,80,53,30.04,29.93,20,1,20,0.00
2013-10-11,83.2,70.0,62.9,66.3,63.7,61.2,95,82,55,30.00,29.89,12,0,12,0.00
2013-10-12,83.4,71.4,64.7,70.9,67.1,63.1,97,87,63,30.03,29.92,5,0,5,0.00
2013-10-13,78.0,71.4,67.2,69.2,67.3,65.1,95,87,71,30.11,30.01,11,0,11,0.00
2013-10-14,73.9,70.1,67.2,69.5,66.6,64.5,92,89,82,30.10,30.02,11,1,11,0.00
2013-10-15,76.7,67.2,63.4,64.6,62.2,60.2,93,84,64,30.09,29.98,12,0,12,0.00
2013-10-16,75.8,68.1,62.9,68.0,64.3,61.2,97,88,74,30.02,29.94,8,0,8,0.00
2013-10-17,85.3,70.0,61.0,72.9,65.6,59.7,98,87,64,29.98,29.88,6,0,6,0.00
2013-10-18,86.3,74.5,68.2,75.2,70.9,66.7,98,89,65,29.97,29.88,8,0,8,0.00
2013-10-19,81.9,74.0,66.8,73.8,70.9,64.7,98,90,74,29.94,29.84,7,0,8,0.27
2013-10-20,75.7,66.6,62.0,64.9,60.9,57.5,93,82,67,30.05,29.89,9,0,9,0.00
2013-10-21,70.4,65.5,61.6,65.1,60.9,56.3,90,85,80,30.09,29.99,8,0,8,0.00
2013-10-22,67.3,64.7,62.7,63.5,61.5,59.6,93,90,82,30.01,29.83,1,0,1,0.05
2013-10-23,74.3,64.6,56.5,62.0,54.3,42.1,98,73,38,30.00,29.75,21,2,21,0.01
2013-10-24,67.9,54.8,46.9,48.5,42.6,37.1,87,65,39,30.19,30.00,11,0,11,0.00
2013-10-25,66.5,54.4,49.3,52.2,44.9,38.4,95,72,44,30.33,30.13,14,0,14,0.00
2013-10-26,69.2,52.9,41.7,50.5,43.1,37.4,86,71,47,30.32,30.13,7,0,7,0.00
2013-10-27,76.4,56.8,44.0,57.8,49.3,42.1,95,78,49,30.15,30.05,10,0,10,0.00
2013-10-28,75.5,62.9,55.6,63.5,57.8,53.3,96,84,60,30.24,30.11,5,0,5,0.00
2013-10-29,80.1,62.5,52.6,62.4,57.0,51.1,98,84,50,30.31,30.22,5,0,6,0.00
2013-10-30,81.6,63.7,54.5,64.3,58.5,53.2,98,85,49,30.31,30.18,4,0,6,0.00
2013-10-31,81.8,67.2,55.5,70.7,63.2,54.0,98,88,67,30.20,29.98,3,0,5,0.00
2013-11-1,78.6,73.5,69.9,72.1,70.1,66.8,95,89,77,29.98,29.74,11,0,14,0.07
2013-11-2,72.3,65.3,55.3,70.6,61.3,52.7,98,87,60,29.94,29.73,8,1,11,0.89
2013-11-3,69.8,56.8,49.9,52.6,46.6,41.8,91,71,38,30.27,29.94,7,0,14,0.00
2013-11-4,68.3,56.7,50.9,50.2,45.4,40.4,82,67,38,30.41,30.26,12,1,12,0.00
2013-11-5,64.8,54.6,44.9,59.6,51.0,42.1,95,88,74,30.41,30.29,7,1,14,0.03
2013-11-6,77.2,65.2,56.9,67.9,61.7,55.3,97,89,72,30.30,30.07,7,1,8,0.00
2013-11-7,77.0,68.6,63.8,67.4,64.9,62.6,97,89,69,30.07,29.92,7,0,9,0.00
2013-11-13,40.8,37.6,36.3,30.0,26.4,-99.9,75,68,63,30.50,30.47,1,-25,1,0.00
2013-11-14,64.2,47.0,33.3,48.4,38.8,28.0,91,74,53,30.48,30.30,7,0,7,0.00
2013-11-15,64.9,58.2,48.6,61.2,55.8,46.4,95,92,87,30.30,30.13,6,0,6,0.00
2013-11-16,78.6,64.3,58.8,66.0,60.6,56.8,98,89,64,30.20,30.13,5,0,6,0.01
2013-11-17,75.9,65.8,57.7,72.3,64.2,55.9,99,95,86,30.17,29.98,4,0,5,0.02
2013-11-18,82.2,71.8,64.2,73.0,67.7,-99.9,98,88,65,29.99,29.81,12,-3,12,0.01
2013-11-19,64.0,55.4,48.0,52.5,40.8,36.5,81,58,45,30.17,29.90,16,2,16,0.00
2013-11-20,58.8,52.7,45.9,50.5,45.1,38.1,81,75,68,30.30,30.16,12,2,13,0.00
2013-11-21,71.2,59.9,52.5,63.0,55.1,47.8,95,84,71,30.37,30.28,10,1,10,0.00
2013-11-22,75.4,67.5,60.3,67.8,64.4,59.4,98,90,77,30.29,30.14,4,0,4,0.02
2013-11-23,70.5,64.1,58.5,67.1,61.8,54.0,98,92,85,30.14,29.98,13,1,13,0.04
2013-11-24,58.5,45.2,35.2,54.0,28.0,19.6,85,52,31,30.50,30.09,13,1,14,0.00
2013-11-25,53.4,42.5,33.6,45.0,30.0,13.3,90,62,40,30.50,30.23,14,2,15,0.00
2013-11-26,70.2,59.9,46.8,69.8,58.9,44.6,99,97,91,30.23,29.59,18,1,18,2.08
2013-11-27,68.2,54.2,39.9,67.3,51.6,36.1,98,91,82,30.20,29.50,25,3,25,0.09
2013-11-28,51.1,38.8,32.4,36.0,30.2,24.8,92,73,42,30.47,30.20,10,0,10,0.00
2013-11-29,59.9,44.8,34.3,41.4,36.1,32.5,94,73,48,30.51,30.42,10,0,11,0.00
2013-11-30,60.3,47.8,38.3,46.8,39.8,33.1,83,74,56,30.51,30.29,12,1,13,0.00
2013-12-1,62.1,54.3,47.8,56.5,49.4,43.2,92,84,75,30.30,29.99,8,0,8,0.00
2013-12-2,66.9,55.5,46.9,53.2,50.0,44.4,95,83,48,29.99,29.80,9,0,9,0.00
2013-12-3,70.9,56.2,46.2,57.7,51.9,44.1,97,87,63,29.98,29.87,3,0,4,0.01
2013-12-4,77.2,63.2,56.8,67.1,59.5,54.5,98,88,68,30.10,29.96,11,0,11,0.00
2013-12-5,76.6,65.2,57.0,70.0,62.5,55.9,99,91,74,30.17,30.07,4,0,4,0.00
2013-12-6,79.9,70.0,64.9,71.4,67.0,63.5,97,91,75,30.16,30.07,13,0,13,0.00
2013-12-7,78.6,64.6,49.8,71.4,62.2,48.7,97,92,76,30.32,30.09,13,1,13,0.22
2013-12-8,49.8,47.5,46.2,48.7,46.8,45.1,98,97,96,30.33,30.23,12,1,12,0.08
2013-12-9,75.0,57.2,46.6,69.3,55.6,45.5,99,95,79,30.24,30.05,7,0,7,0.00
2013-12-10,72.0,63.2,49.8,69.1,60.0,46.4,99,90,71,30.29,29.96,19,1,19,0.06
2013-12-11,56.5,48.6,39.6,46.6,40.9,34.2,92,75,49,30.42,30.28,9,1,12,0.00
2013-12-12,58.6,45.6,36.5,43.5,35.7,28.6,92,71,37,30.40,30.25,12,1,13,0.00
2013-12-13,58.6,45.1,33.3,41.9,36.5,30.4,94,74,48,30.40,30.23,6,0,6,0.00
2013-12-14,68.7,60.7,48.0,66.9,58.4,41.9,98,92,79,30.23,29.79,21,1,21,0.20
2013-12-15,65.5,57.2,46.2,64.2,53.3,42.1,97,87,72,30.12,29.78,17,2,20,0.08
2013-12-16,63.7,47.2,37.0,44.6,40.3,35.2,94,80,40,30.22,30.12,6,0,7,0.01
2013-12-17,67.8,51.3,39.6,48.0,41.6,37.8,98,73,34,30.23,30.08,14,1,14,0.01
2013-12-18,61.2,50.0,38.8,41.5,36.8,31.1,87,62,35,30.32,30.09,13,1,14,0.01
2013-12-19,67.3,48.1,34.9,51.4,42.3,32.7,97,82,55,30.36,30.23,4,0,4,0.00
2013-12-20,74.1,57.5,47.3,61.5,53.2,44.4,100,87,62,30.26,30.15,8,0,8,0.01
2013-12-21,77.7,64.0,53.6,70.0,61.6,52.3,99,92,76,30.17,30.07,5,0,5,0.00
2013-12-22,77.7,70.0,64.2,72.7,68.0,63.3,99,94,83,30.12,30.07,13,0,13,0.01
2013-12-23,77.7,68.9,59.0,71.2,66.7,57.7,97,93,77,30.12,30.03,12,0,14,0.00
2013-12-24,61.7,54.1,43.9,57.7,46.1,34.3,97,76,46,30.35,30.06,14,2,18,0.01
2013-12-25,53.1,42.7,34.7,38.7,33.0,26.2,76,68,56,30.46,30.32,7,1,13,0.00
2013-12-26,51.4,45.9,41.9,45.9,40.6,33.4,89,82,71,30.32,30.22,11,1,11,0.00
2013-12-27,60.4,49.4,42.6,41.2,37.3,35.2,84,64,42,30.40,30.29,10,1,10,0.00
2013-12-28,63.0,51.0,37.9,54.7,45.0,33.6,95,80,67,30.38,30.03,10,0,11,0.00
2013-12-29,73.8,63.7,53.4,68.9,60.3,50.0,99,89,65,30.03,29.79,16,1,19,0.40
2013-12-30,61.0,52.4,45.3,50.2,47.2,44.1,96,83,63,30.16,29.98,12,1,12,0.00
2013-12-31,56.8,52.0,45.9,49.1,45.8,42.8,91,80,62,30.37,30.14,12,1,16,0.01
2014-1-1,54.7,48.7,45.1,48.6,45.8,43.2,96,90,79,30.36,30.12,6,0,6,0.19
2014-1-2,59.2,52.8,48.7,58.6,51.8,43.0,99,96,77,30.13,29.65,21,1,21,0.67